Regional Weather Roundup
Issued by NWS

Home | Current Version | Previous Version | Graphics & Text | Print | Product List | Glossary On
Versions: 1 2 3 4 5 6 7 8 9 10 11 12 13 14 15 16 17 18 19 20 21 22 23 24 25 26 27 28 29 30 31 32 33 34 35 36 37 38 39 40 41 42 43 44 45 46 47 48 49 50
358
ASUS45 KBOU 200607
RWRCO

WEATHER ROUNDUP FOR COLORADO
NATIONAL WEATHER SERVICE DENVER/BOULDER CO
1200 AM MDT WED SEP 20 2017

NOTE: "FAIR" INDICATES FEW OR NO CLOUDS BELOW 12000 FEET WITH NO
SIGNIFICANT WEATHER AND/OR OBSTRUCTIONS TO VISIBILITY.

COZ001>005-013-030-031-200700-
...NORTHWEST COLORADO...

CITY           SKY/WX    TMP DP  RH WIND       PRES   REMARKS
CRAIG          CLOUDY    40  36  86 CALM      30.04R
HAYDEN         MIX PCPN  37  35  92 E15       30.07F
MEEKER         LGT RAIN  42  38  85 NE9       30.01R
RABBIT EARS PA SNOW      28  28 100 NW7G18    30.09F VSB 1/2 WCI  21
STEAMBOAT SPGS CLOUDY    33  33  99 CALM      30.05F
WALDEN         CLOUDY    34  32  93 CALM      30.06S
$$

COZ006>008-011-200700-
...WEST CENTRAL VALLEYS...

CITY           SKY/WX    TMP DP  RH WIND       PRES   REMARKS
GRAND JUNCTION FAIR      62  37  39 MISG      29.85R
MONTROSE       MOCLDY    54  33  45 SE8       29.93R
EAGLE          CLOUDY    55  32  41 W7        29.94R
RIFLE          CLOUDY    55  36  48 NW6       29.93R
DELTA          FAIR      67  30  24 CALM      29.86R
NUCLA          FAIR      57  28  33 CALM      29.97R
$$

COZ017>023-064>068-200700-
...SOUTHWEST COLORADO...

CITY           SKY/WX    TMP DP  RH WIND       PRES   REMARKS
DURANGO        FAIR      50  28  42 N7        30.02S
CORTEZ         FAIR      67  20  16 SW20      29.97R
PAGOSA SPRINGS FAIR      45  27  50 CALM      30.09S
TELLURIDE      FAIR      54  22  27 CALM      30.17R
WOLF CREEK PAS FAIR      41  18  38 SW32G40   30.30F
$$

COZ009-010-012-014-032>034-037-058>063-200700-
...CENTRAL COLORADO...

CITY           SKY/WX    TMP DP  RH WIND       PRES   REMARKS
ASPEN          MOCLDY    63  26  24 VRB5G20   29.96S
BUENA VISTA    FAIR      61  20  20 SW10G16   29.99R
COPPER MTN     CLOUDY    45  19  36 W20G29    30.20R
BERTHOUD PASS  FAIR      34  27  75 W28G46    30.15S WCI  20
COTTONWOOD PAS FAIR      55  18  22 W32G46    30.04F
GUNNISON       FAIR      48  23  37 NE9       30.03R
KREMMLING      DRIZZLE   45  34  65 N5        30.04R
LEADVILLE      MOCLDY    49  19  30 S12G22    30.07S
MONARCH PASS   FAIR      41  18  38 W33G46    30.32S
SALIDA         FAIR      61  18  18 SW12      30.04S
SUNLIGHT       CLOUDY    41  28  60 SW15G28   30.15S
WILKERSON PASS FAIR      45  18  33 SW17G35   30.15S
$$

COZ069>075-200700-
...SAN LUIS VALLEY/SANGRE DE CRISTO MOUNTAINS...

CITY           SKY/WX    TMP DP  RH WIND       PRES   REMARKS
ALAMOSA        FAIR      44  25  47 SE8       30.02R
DEL NORTE      FAIR      58  21  24 W13       30.03S
LA VETA PASS   FAIR      52  18  25 S26G52    30.23F
SAGUACHE       FAIR      45  28  53 CALM      30.03R
$$

COZ035-036-038>040-200700-
...NORTHERN COLORADO FRONT RANGE...

CITY           SKY/WX    TMP DP  RH WIND       PRES   REMARKS
DENVER INTL AP FAIR      45  29  53 SE8       29.87R
DMNS CITY PARK   N/A     49  33  54 E10       29.86R
AURORA         CLEAR     45  31  58 SE10      29.87R
FRONT RANGE AP FAIR      46  32  57 SE9G17    29.88R
ERIE MUNI ARPT FAIR      50  30  45 E7        29.91R
BOULDER MUN AP FAIR      50  32  50 N3        29.86R
CENTENNIAL     FAIR      47  32  56 SE7       29.86S
BROOMFIELD     FAIR      50  32  50 E10       29.87R
FORT COLLINS   FAIR      48  32  53 CALM      29.88R
LONGMONT       FAIR      51  32  48 E5        29.87F
$$

COZ041-046-047-076>085-087-088-200700-
...PIKES PEAK/PALMER DIVIDE AND SOUTHERN FOOTHILLS...

CITY           SKY/WX    TMP DP  RH WIND       PRES   REMARKS
COLO. SPRINGS  FAIR      47  31  53 N9        29.90R
A. F. ACADEMY  FAIR      47  31  53 NW7       29.89R
SCHRIEVER AFB  FAIR      45  30  55 MISG      29.89S
CHEYENNE MTN   NOT AVBL
ELLICOTT         N/A    N/A N/A N/A E16       29.87S
FALCON         FAIR      42  29  60 E7        29.93R
FORT CARSON    FAIR      47  31  54 NW6       29.86R
LIMON          FAIR      41  29  62 N6        29.89S
MONUMENT HILL  FAIR      37  30  75 SE7       29.94R
CANON CITY     CLEAR     55  36  47 SE12      29.84R
WALSENBURG     FAIR      66  19  16 W8        29.88R
TRINIDAD       FAIR      64  24  21 E5        29.87R
$$

COZ042>045-048>051-090-091-200700-
...NORTHEAST COLORADO...

CITY           SKY/WX    TMP DP  RH WIND       PRES   REMARKS
GREELEY ARPT   FAIR      48  35  60 W8        29.88R
AKRON          FAIR      49  30  48 NW17      29.86R
BURLINGTON     FAIR      53  33  46 N15       29.87R
WRAY           FAIR      50  32  50 W6        29.85R
YUMA           FAIR      50  12  22 NW8       29.86R
STERLING       FAIR      52  32  46 N7        29.84R
HOLYOKE        NOT AVBL
FORT MORGAN    FAIR      50  31  48 N15G21    29.87R
$$

COZ086-089-092>099-200700-
...SOUTHEAST COLORADO...

CITY           SKY/WX    TMP DP  RH WIND       PRES   REMARKS
PUEBLO         FAIR      56  32  40 SE5       29.84R
LA JUNTA       FAIR      57  33  40 N17       29.83R
LAMAR          FAIR      60  36  40 NE17G25   29.80R
SPRINGFIELD    NOT AVBL
$$




USA.gov is the U.S. government's official web portal to all federal, state and local government web resources and services.